Vertical_Velocity
1 2 1 0 0 -1 -2 2 3 7 10 5 1 9 9 -3 3 9 5 2 4 -2
5 5 3 1 -0 0 0 -1 1 1 4 -0 -6 5 11 9 3 -0 2 1 1 1
2 2 1 1 2 2 1 -1 -2 3 -0 1 5 6 -1 -2 -6 4 3 2 5 4
-1 -0 1 2 1 1 1 1 2 -1 0 3 4 -3 5 -9 -1 4 3 4 1 3
-1 -2 -1 -1 -0 -1 -0 -0 0 -0 0 -0 -1 -5 1 7 -2 8 2 3 2 3
1 -0 -1 -0 -0 -1 -1 -0 -1 -0 0 2 4 3 7 1 4 1 1 1 1 -2
-0 1 -2 -0 0 0 0 0 -2 0 1 1 -1 3 2 1 1 3 3 1 2 1
1 -1 -1 -2 -0 0 -1 0 1 -0 3 2 0 -0 -1 -1 0 0 1 1 1 1
0 -0 1 0 -2 -0 1 -1 -1 1 1 1 1 -1 -1 1 -2 -1 -1 -1 -1 -0
0 -1 -1 -0 -1 -2 1 2 -1 -1 -0 2 -1 1 -1 -1 -2 1 1 1 1 2
1 2 -0 -1 -1 -3 -3 0 -0 -1 -2 0 2 -0 -3 -4 3 1 -0 1 1 2
-2 4 0 -2 -7 -2 -0 0 -4 -3 0 2 -0 -0 0 -2 -1 1 1 -0 0 -0
3 2 -4 -6 -5 -5 -2 2 0 -2 0 1 0 -0 -1 -1 -1 -1 1 -0 -0 -0
4 -1 5 -4 -7 -3 -2 -0 1 1 -1 -2 -1 1 -1 -0 2 0 -1 -1 1 1
Height
2992 2995 2999 3002 3007 3011 3016 3020 3025 3028 3031 3034 3038 3040 3043 3045 3050 3052 3052 3055 3057 3057
2984 2987 2989 2993 2997 3001 3006 3011 3015 3019 3022 3025 3028 3030 3032 3036 3039 3041 3044 3046 3047 3048
2981 2983 2986 2988 2991 2994 2997 3001 3006 3009 3013 3016 3017 3020 3024 3027 3030 3032 3034 3036 3038 3040
2979 2981 2983 2985 2987 2989 2991 2994 2997 3001 3004 3007 3010 3013 3015 3019 3021 3023 3024 3026 3027 3030
2974 2977 2979 2981 2983 2985 2987 2988 2990 2992 2995 2998 3002 3004 3006 3009 3012 3014 3014 3016 3018 3019
2967 2970 2972 2974 2976 2978 2979 2981 2983 2985 2987 2989 2992 2995 2998 3001 3002 3003 3005 3005 3008 3008
2961 2962 2964 2966 2968 2970 2971 2973 2975 2977 2979 2982 2984 2987 2988 2989 2991 2992 2993 2995 2997 2999
2954 2956 2958 2959 2960 2962 2963 2965 2967 2968 2969 2971 2974 2975 2977 2979 2980 2982 2984 2985 2986 2989
2948 2949 2950 2952 2953 2954 2956 2958 2959 2960 2961 2962 2965 2966 2968 2970 2972 2973 2975 2977 2978 2980
2942 2943 2944 2945 2946 2947 2949 2950 2952 2953 2954 2955 2957 2958 2960 2962 2964 2965 2967 2968 2970 2971
2936 2937 2937 2938 2939 2942 2944 2944 2945 2947 2948 2949 2951 2952 2954 2955 2957 2958 2960 2962 2963 2964
2932 2932 2932 2933 2934 2936 2937 2937 2938 2940 2942 2943 2945 2946 2947 2949 2950 2953 2954 2956 2957 2959
2925 2927 2928 2929 2930 2932 2932 2932 2933 2935 2936 2937 2939 2940 2941 2942 2944 2946 2948 2949 2950 2951
2920 2921 2922 2924 2926 2927 2927 2928 2929 2930 2931 2932 2934 2935 2936 2936 2938 2940 2941 2943 2944 2946